Regional Weather Roundup
Issued by NWS

Home | Current Version | Previous Version | Graphics & Text | Print | Product List | Glossary On
Versions: 1 2 3 4 5 6 7 8 9 10 11 12 13 14 15 16 17 18 19 20 21 22 23 24 25 26 27 28 29 30 31 32 33 34 35 36 37 38 39 40 41 42 43 44 45 46 47 48 49 50
000
ASUS43 KFSD 261402
RWRSD

WEATHER ROUNDUP FOR SOUTH DAKOTA
NATIONAL WEATHER SERVICE SIOUX FALLS SD
900 AM CDT WED JUL 26 2017

NOTE: "FAIR" INDICATES FEW OR NO CLOUDS BELOW 12,000 FEET WITH NO
SIGNIFICANT WEATHER AND/OR OBSTRUCTIONS TO VISIBILITY.


SDZ001>005-009-010-012>017-261500-
NORTHWEST AND NORTH CENTRAL SOUTH DAKOTA

CITY           SKY/WX    TMP DP  RH WIND       PRES   REMARKS
BUFFALO          N/A     71  59  65 N3        30.10S
FAITH            N/A     74  54  49 NE9       30.12R
MOBRIDGE       MOSUNNY   75  60  59 CALM      30.07R
$$

SDZ012>016-024>037-041>051-057-063-072>074-261500-
SOUTHWEST AND SOUTH CENTRAL SOUTH DAKOTA

CITY           SKY/WX    TMP DP  RH WIND       PRES   REMARKS
RAPID CTY ARPT CLOUDY    72  50  45 NW8       30.15R
PIERRE         CLOUDY    72  66  81 NE15      30.05R
CUSTER         CLOUDY    64  46  52 N3        30.28R
ELLSWORTH AFB  CLOUDY    73  50  44 N6        30.16R
PHILIP         CLOUDY    73  62  68 NE9       30.08S
PINE RIDGE     CLOUDY    72  60  66 N5        30.14R
SPEARFISH      FAIR      68  55  64 W6        30.21R
WINNER         FAIR      73  68  84 N3        30.05R
$$

SDZ004>011-016>023-039-040-261500-
NORTHEAST SOUTH DAKOTA

CITY           SKY/WX    TMP DP  RH WIND       PRES   REMARKS
ABERDEEN       SUNNY     72  64  76 E6        30.06R
WATERTOWN      CLOUDY    70  63  78 NE9       30.05R
BROOKINGS      CLOUDY    72  70  93 NE9       30.04R
SISSETON         N/A     73  64  73 NW3       30.04R
$$

SDZ017-020-022-023-036>040-048>070-261500-
SOUTHEAST SOUTH DAKOTA

CITY           SKY/WX    TMP DP  RH WIND       PRES   REMARKS
SIOUX FALLS    CLOUDY    75  71  87 E7        30.01S
HURON          CLOUDY    73  70  90 NE6       30.03R
CHAMBERLAIN    CLOUDY    74  72  93 E7        30.04R
MITCHELL       CLOUDY    75  71  87 SE5       30.00R
YANKTON        MOSUNNY   75  72  90 NE8       29.99F
$$

ABBREVIATIONS USED IN REMARKS
   TC - TEMPERATURE IN CELSIUS
  WCI - WIND CHILL INDEX
   HX - HEAT INDEX
  VSB - VISIBILITY





USA.gov is the U.S. government's official web portal to all federal, state and local government web resources and services.